SCP
0 0 0 0 0 0 0 0 0 0 0 0 0 0 0 0 0 0 0 0 0 0
0 0 0 0 0 0 0 0 0 0 0 0 0 0 0 0 0 0 0 0 0 0
0 0 0 0 0 0 0 0 0 0 0 0 0 0 0 0 0 0 0 0 0 0
0 0 0 0 0 0 0 0 0 0 0 0 0 0 0 0 0 0 0 0 0 0
0 0 0 0 0 0 0 0 0 0 0 0 0 0 0 0 0 0 0 0 0 0
0 0 0 0 0 0 0 0 0 0 0 0 0 0 0 0 0 0 0 0 0 0
0 0 0 0 0 0 0 0 0 0 0 0 0 0 0 0 0 0 0 0 0 0
0 0 0 0 0 0 0 0 0 0 0 0 0 0 0 0 0 0 0 0 0 0
0 0 0 0 0 0 0 0 0 0 0 0 0 0 0 0 0 0 0 0 0 0
0 0 0 0 0 0 0 0 0 0 0 0 0 0 0 0 0 0 0 0 0 0
0 0 0 0 0 0 0 0 0 0 0 0 0 0 0 0 0 0 0 0 0 0
0 0 0 0 0 0 0 0 0 0 0 0 0 0 0 0 0 0 0 0 0 0
0 0 0 0 0 0 0 0 0 0 0 0 0 0 0 0 0 0 0 0 0 0
0 0 0 0 0 0 0 0 0 0 0 0 0 0 0 0 0 0 0 0 0 0
Wind_Speed_500mb
27 25 22 19 14 9 7 10 16 21 25 28 31 34 38 40 44 47 49 52 54 57
26 21 17 13 8 4 6 11 16 22 27 30 33 35 38 41 44 48 53 56 60 63
23 18 13 9 4 2 7 13 17 21 25 29 33 37 40 43 48 53 58 63 66 68
24 19 14 7 2 5 8 12 18 23 28 32 35 40 45 49 55 60 65 69 72 73
28 22 15 9 5 7 12 17 23 27 31 35 39 45 51 57 63 69 73 74 74 75
31 26 19 10 7 9 15 21 26 30 35 39 43 48 55 63 68 69 70 73 74 76
37 29 21 15 13 15 18 24 30 35 40 43 46 53 62 65 65 68 71 72 73 74
38 32 26 23 20 20 25 28 34 40 44 45 50 57 60 62 65 69 73 73 72 72
42 37 32 32 26 28 31 33 38 44 46 47 55 56 59 64 68 69 71 72 71 70
45 43 39 35 34 34 34 36 41 46 47 52 55 57 62 66 68 69 68 68 68 67
53 47 42 40 38 36 37 40 43 46 49 54 55 59 63 66 67 67 66 64 63 61
57 46 45 43 39 39 41 43 45 47 52 55 56 58 62 63 65 65 65 60 57 57
51 47 46 41 41 42 43 44 45 49 53 55 57 58 58 60 61 62 59 57 57 55
47 46 42 42 43 43 44 45 44 50 53 54 57 58 53 52 51 51 53 56 59 62
Wind_Direction_500mb
150 145 141 135 124 102 57 16 356 351 348 346 343 340 337 336 334 334 332 330 329 326
163 157 145 134 127 94 6 348 337 330 329 326 325 326 327 328 328 327 327 326 324 323
167 164 161 161 146 344 322 317 317 318 319 323 328 328 328 327 326 325 325 323 320 317
179 186 183 186 235 297 312 322 324 326 327 327 329 327 325 325 324 323 321 319 316 314
191 199 203 211 248 307 321 323 324 325 324 323 324 323 323 324 323 322 320 318 316 314
201 206 210 223 260 292 311 316 322 323 321 320 321 321 320 320 319 318 317 315 313 312
208 211 218 229 254 283 298 312 321 322 320 319 319 318 318 318 317 317 315 313 310 307
213 219 229 237 249 268 283 304 316 319 317 315 316 316 317 317 317 315 313 311 308 305
221 226 232 239 252 265 279 297 310 314 312 312 315 317 318 318 317 316 313 311 309 306
227 234 235 245 254 262 279 293 303 309 309 314 317 319 319 320 319 317 315 311 309 307
229 233 240 251 253 265 278 291 301 305 309 315 319 321 321 321 319 316 314 311 310 311
231 235 249 250 257 269 280 290 298 302 310 316 320 321 321 319 316 314 313 314 317 320
231 245 249 252 262 271 280 289 295 302 310 315 319 320 319 318 315 312 315 318 319 318
238 245 249 255 263 270 280 287 291 300 308 313 316 317 316 314 312 313 315 315 320 324
Wind_Speed_850mb
27 25 22 19 14 9 7 10 16 21 25 28 31 34 38 40 44 47 49 52 54 57
26 21 17 13 8 4 6 11 16 22 27 30 33 35 38 41 44 48 53 56 60 63
23 18 13 9 4 2 7 13 17 21 25 29 33 37 40 43 48 53 58 63 66 68
24 19 14 7 2 5 8 12 18 23 28 32 35 40 45 49 55 60 65 69 72 73
28 22 15 9 5 7 12 17 23 27 31 35 39 45 51 57 63 69 73 74 74 75
31 26 19 10 7 9 15 21 26 30 35 39 43 48 55 63 68 69 70 73 74 76
37 29 21 15 13 15 18 24 30 35 40 43 46 53 62 65 65 68 71 72 73 74
38 32 26 23 20 20 25 28 34 40 44 45 50 57 60 62 65 69 73 73 72 72
42 37 32 32 26 28 31 33 38 44 46 47 55 56 59 64 68 69 71 72 71 70
45 43 39 35 34 34 34 36 41 46 47 52 55 57 62 66 68 69 68 68 68 67
53 47 42 40 38 36 37 40 43 46 49 54 55 59 63 66 67 67 66 64 63 61
57 46 45 43 39 39 41 43 45 47 52 55 56 58 62 63 65 65 65 60 57 57
51 47 46 41 41 42 43 44 45 49 53 55 57 58 58 60 61 62 59 57 57 55
47 46 42 42 43 43 44 45 44 50 53 54 57 58 53 52 51 51 53 56 59 62
Wind_Direction_850mb
150 145 141 135 124 102 57 16 356 351 348 346 343 340 337 336 334 334 332 330 329 326
163 157 145 134 127 94 6 348 337 330 329 326 325 326 327 328 328 327 327 326 324 323
167 164 161 161 146 344 322 317 317 318 319 323 328 328 328 327 326 325 325 323 320 317
179 186 183 186 235 297 312 322 324 326 327 327 329 327 325 325 324 323 321 319 316 314
191 199 203 211 248 307 321 323 324 325 324 323 324 323 323 324 323 322 320 318 316 314
201 206 210 223 260 292 311 316 322 323 321 320 321 321 320 320 319 318 317 315 313 312
208 211 218 229 254 283 298 312 321 322 320 319 319 318 318 318 317 317 315 313 310 307
213 219 229 237 249 268 283 304 316 319 317 315 316 316 317 317 317 315 313 311 308 305
221 226 232 239 252 265 279 297 310 314 312 312 315 317 318 318 317 316 313 311 309 306
227 234 235 245 254 262 279 293 303 309 309 314 317 319 319 320 319 317 315 311 309 307
229 233 240 251 253 265 278 291 301 305 309 315 319 321 321 321 319 316 314 311 310 311
231 235 249 250 257 269 280 290 298 302 310 316 320 321 321 319 316 314 313 314 317 320
231 245 249 252 262 271 280 289 295 302 310 315 319 320 319 318 315 312 315 318 319 318
238 245 249 255 263 270 280 287 291 300 308 313 316 317 316 314 312 313 315 315 320 324